[[{"header":{"parameterUnit":"m.s-1","parameterCategory":1,"la1":30.2991,"la2":30.254,"lo1":-89.0895,"lo2":-89.0444,"dy":0.0017,"dx":0.0017,"nx":28,"ny":28,"refTime":"2025-01-05T09:00:00:Z","depth":0,"parameterNumber":2,"parameterNumberName":"U-component_of_WINDS"},"data":[0,0,0,0,0,0,0,0,0,0,0,0,0,0,0,0,0,0,0,0,0,0,0,0,0,0,0,0,0,0,0,0,0,0,0,0,0,0,0,0,0,0,0,0,0,0,0,0,0,0,0,0,0,0,0,0,0,0,-3.0271,-3.0272,0,-3.0378,-3.0379,-3.0381,-3.0453,-3.0454,-3.0454,-3.0455,-3.0555,-3.0558,-3.056,0,0,0,0,0,0,0,0,0,0,0,0,0,-3.0118,-3.012,-3.0271,-3.0272,-3.0273,-3.0378,-3.038,-3.0381,-3.0453,-3.0454,-3.0455,-3.0455,-3.0555,-3.0557,-3.056,0,0,0,0,0,0,0,0,0,0,0,0,0,-3.02,-3.0121,-3.027,-3.0322,-3.0328,-3.0378,-3.038,-3.0381,-3.0453,-3.0454,-3.0455,-3.0455,-3.0554,-3.0557,-3.056,-3.0564,0,0,-3.057,-3.0572,0,0,0,0,0,0,0,0,-3.0196,-3.0206,-3.0313,-3.0319,-3.0325,-3.0404,-3.0363,-3.0442,-3.0453,-3.0405,-3.0455,-3.0456,-3.0504,-3.0511,-3.0529,-3.0569,-3.0573,-3.0571,-3.0572,-3.0574,-3.0575,0,0,0,0,0,0,0,-3.019,-3.0202,-3.0313,-3.0315,-3.0322,-3.0337,-3.035,-3.0378,-3.0448,-3.0409,-3.0415,-3.0427,-3.0507,-3.0526,-3.0532,-3.0575,-3.057,-3.0573,-3.0575,-3.0577,-3.062,-3.0619,0,0,0,0,0,0,-3.0177,-3.0196,-3.031,-3.0316,-3.0262,-3.0339,-3.0353,-3.0377,-3.0448,-3.046,-3.0427,-3.043,-3.052,-3.0528,-3.0536,-3.0543,-3.0574,-3.0577,-3.0579,-3.0621,-3.062,-3.0619,0,0,0,0,0,0,-3.0174,-3.0187,-3.0305,-3.0258,-3.0274,-3.0341,-3.0367,-3.0379,-3.0398,-3.0461,-3.0473,-3.0434,-3.0521,-3.0531,-3.0557,-3.0548,-3.0578,-3.0581,-3.0622,-3.062,-3.0619,-3.0559,0,0,0,0,0,0,-3.0169,-3.0185,-3.019,-3.0258,-3.0277,-3.0327,-3.0367,-3.0381,-3.0405,-3.0411,-3.0471,-3.0482,-3.0522,-3.0551,-3.056,-3.0553,-3.0584,-3.0623,-3.0621,-3.062,-3.0562,-3.0556,-3.055,0,0,0,0,0,-3.0164,-3.0167,-3.019,-3.0203,-3.0284,-3.0326,-3.0337,-3.0386,-3.0404,-3.0407,-3.0447,-3.048,-3.0548,-3.0553,-3.0564,-3.0557,-3.0623,-3.0622,-3.062,-3.0564,-3.0557,-3.0551,0,0,0,0,0,0,-3.0093,-3.0177,-3.0203,-3.0229,-3.027,-3.0339,-3.0345,-3.0377,-3.0412,-3.0416,-3.0473,-3.0486,-3.0504,-3.0534,-3.0538,-3.0563,-3.0589,-3.0589,-3.0544,-3.0537,-3.0531,-3.0523,-3.0587,0,0,0,0,0,-3.0081,-3.0111,-3.0182,-3.0198,-3.0217,-3.0277,-3.0297,-3.0332,-3.0376,-3.0393,-3.0435,-3.0474,-3.0504,-3.0522,-3.0554,-3.0567,-3.0579,-3.0567,-3.0562,-3.0557,-3.0555,-3.0562,-3.0557,-3.0613,-3.0613,-3.0613,0,0,-3.0055,-3.0105,-3.012,-3.0185,-3.0221,-3.0248,-3.0291,-3.0319,-3.0338,-3.0396,-3.0423,-3.0455,-3.0502,-3.0521,-3.0531,-3.0546,-3.0543,-3.0554,-3.055,-3.0551,-3.0559,-3.0554,-3.0549,-3.0612,-3.0612,-3.0612,0,0,-3.0022,-3.0064,-3.0081,-3.0117,-3.0172,-3.0212,-3.0216,-3.028,-3.0304,-3.0333,-3.0376,-3.0399,-3.045,-3.0481,-3.0504,-3.0481,-3.0511,-3.049,-3.0459,-3.0465,-3.046,-3.0456,-3.0446,-3.0442,-3.0489,-3.0488,-3.0488,0,-2.9982,-3.0028,-3.0085,-3.011,-3.0135,-3.0193,-3.0208,-3.0239,-3.03,-3.0315,-3.0331,-3.0396,-3.0432,-3.0457,-3.0452,-3.0469,-3.0472,-3.0482,-3.0457,-3.0454,-3.0451,-3.0441,-3.0438,-3.0485,-3.0486,-3.0486,-3.0486,0,-2.9975,-3.0005,-3.0012,-3.0073,-3.01,-3.0119,-3.0176,-3.0195,-3.0228,-3.0264,-3.0291,-3.0336,-3.0377,-3.0386,-3.0416,-3.0415,-3.0422,-3.0447,-3.0474,-3.0442,-3.0433,-3.043,-3.0481,-3.0482,-3.0483,-3.0484,0,0,-2.9899,-2.9992,-2.9993,-3.002,-3.0085,-3.0108,-3.0129,-3.0172,-3.0186,-3.0226,-3.0243,-3.0285,-3.0309,-3.0334,-3.0368,-3.0374,-3.035,-3.0398,-3.04,-3.0385,-3.0348,-3.0327,-3.0322,-3.0371,-3.0371,-3.0371,-3.0343,0,-2.9874,-2.9918,-2.997,-2.9995,-3.0022,-3.0076,-3.0094,-3.0134,-3.0169,-3.0194,-3.0232,-3.026,-3.029,-3.0305,-3.0313,-3.0351,-3.0343,-3.0354,-3.0384,-3.0384,-3.0368,-3.0319,-3.0297,-3.0269,-3.0341,-3.034,-3.034,0,-2.985,-2.989,-2.9919,-2.9981,-2.9994,-3.001,-3.0052,-3.0077,-3.0122,-3.0146,-3.0175,-3.0212,-3.0234,-3.0259,-3.0287,-3.0294,-3.0309,-3.0329,-3.0329,-3.0332,-3.0358,-3.0317,-3.0262,-3.0256,-3.0336,-3.0336,-3.0337,0,-2.9789,-2.985,-2.9875,-2.9897,-2.997,-2.9979,-3.0009,-3.0056,-3.0077,-3.0113,-3.0127,-3.0164,-3.0183,-3.0209,-3.0254,-3.0269,-3.0277,-3.0306,-3.0294,-3.0293,-3.0292,-3.0291,-3.0235,-3.0305,-3.0305,-3.0305,-3.0306,0,-2.9754,-2.9769,-2.9848,-2.9863,-2.988,-2.9937,-2.9951,-2.9986,-3.0027,-3.0046,-3.0095,-3.0112,-3.0172,-3.0195,-3.023,-3.0246,-3.0255,-3.0273,-3.0281,-3.0267,-3.0264,-3.0276,-3.0278,-3.0304,-3.0305,-3.0305,-3.0305,0,-2.9688,-2.9742,-2.9772,-2.9839,-2.9857,-2.9866,-2.9922,-2.9936,-2.9974,-2.9998,-3.0007,-3.0065,-3.0095,-3.0143,-3.0186,-3.021,-3.0218,-3.0235,-3.0203,-3.0208,-3.0193,-3.0192,-3.014,-3.0135,-3.0211,-3.021,-3.021,0,-2.9661,-2.9674,-2.9743,-2.9762,-2.9791,-2.982,-2.9843,-2.9899,-2.992,-2.9972,-2.9979,-3.0013,-3.0043,-3.0087,-3.0131,-3.0163,-3.0179,-3.0159,-3.0184,-3.0168,-3.0175,-3.0173,-3.0173,-3.0151,-3.015,-3.015,-3.0149,0,-2.9606,-2.9633,-2.9666,-2.9708,-2.9735,-2.977,-2.9807,-2.9818,-2.9882,-2.9903,-2.9935,-2.9958,-3.0003,-3.0034,-3.0073,-3.01,-3.0133,-3.0141,-3.014,-3.0123,-3.0104,-3.0111,-3.0185,-3.0141,-3.0142,-3.0143,-3.0143,-3.0143,-2.9557,-2.957,-2.9621,-2.9656,-2.969,-2.9724,-2.974,-2.9781,-2.981,-2.9853,-2.9884,-2.9913,-2.9955,-3.0011,-3.0037,-3.0058,-3.0073,-3.0072,-3.0071,-3.0069,-3.0062,-3.0103,-3.0065,-3.0066,-3.0066,-3.0066,-3.0066,0,-2.9503,-2.9539,-2.957,-2.9622,-2.9648,-2.9681,-2.9724,-2.9742,-2.9768,-2.9807,-2.9836,-2.9871,-2.9902,-2.9949,-2.9983,-2.999,-3.0006,-2.9997,-2.9995,-3.0,-3.0048,-3.0045,-2.9983,-2.9983,-2.9983,-2.9983,-2.9983,-2.9983,-2.9477,-2.9501,-2.9533,-2.9573,-2.9608,-2.9639,-2.966,-2.969,-2.9721,-2.9759,-2.9786,-2.9818,-2.9858,-2.9895,-2.9924,-2.9936,-2.9945,-2.993,-2.9947,-2.999,-2.9997,-3.0005,-3.0002,-2.9932,-2.9932,-2.9897,-2.9897,-2.9897]},{"header":{"parameterUnit":"m.s-1","parameterCategory":1,"la1":30.2991,"la2":30.254,"lo1":-89.0895,"lo2":-89.0444,"dy":0.0017,"dx":0.0017,"nx":28,"ny":28,"refTime":"2025-01-05T09:00:00:Z","depth":0,"parameterNumber":3,"parameterNumberName":"V-component_of_WINDS"},"data":[0,0,0,0,0,0,0,0,0,0,0,0,0,0,0,0,0,0,0,0,0,0,0,0,0,0,0,0,0,0,0,0,0,0,0,0,0,0,0,0,0,0,0,0,0,0,0,0,0,0,0,0,0,0,0,0,0,0,6.7085,6.7085,0,6.7108,6.7109,6.7109,6.7067,6.7066,6.7064,6.7063,6.7084,6.7086,6.7087,0,0,0,0,0,0,0,0,0,0,0,0,0,6.7001,6.7002,6.7085,6.7085,6.7085,6.7108,6.7109,6.7109,6.7067,6.7066,6.7064,6.7062,6.7083,6.7085,6.7088,0,0,0,0,0,0,0,0,0,0,0,0,0,6.7032,6.7003,6.7085,6.7067,6.7066,6.7108,6.7109,6.7109,6.7068,6.7065,6.7063,6.7061,6.7082,6.7085,6.7088,6.7147,0,0,6.7097,6.7098,0,0,0,0,0,0,0,0,6.703,6.7035,6.7069,6.7069,6.7067,6.7083,6.7087,6.7122,6.7068,6.7067,6.7063,6.706,6.7085,6.7087,6.7096,6.7148,6.7149,6.7097,6.7098,6.71,6.71,0,0,0,0,0,0,0,6.7028,6.7034,6.7094,6.707,6.7069,6.7058,6.706,6.7093,6.7087,6.7067,6.7064,6.7067,6.7084,6.7094,6.7097,6.7149,6.7097,6.7099,6.7101,6.7102,6.7254,6.7256,0,0,0,0,0,0,6.7028,6.7032,6.7093,6.7095,6.7043,6.7061,6.7063,6.708,6.7087,6.7086,6.7069,6.7065,6.709,6.7093,6.7097,6.7169,6.71,6.7102,6.7104,6.7252,6.7254,6.7257,0,0,0,0,0,0,6.7027,6.7034,6.7092,6.7063,6.7069,6.7064,6.7083,6.7081,6.7091,6.7089,6.7087,6.7081,6.7088,6.7093,6.7136,6.7169,6.7104,6.7106,6.7249,6.7252,6.7256,6.7313,0,0,0,0,0,0,6.7025,6.7034,6.7057,6.7064,6.7071,6.7132,6.7085,6.7083,6.7097,6.7092,6.7099,6.7098,6.7087,6.7132,6.7139,6.7172,6.7108,6.7246,6.725,6.7255,6.7308,6.7318,6.7327,0,0,0,0,0,6.7022,6.7071,6.7058,6.7066,6.71,6.7134,6.7138,6.7125,6.7099,6.7123,6.7121,6.7098,6.7164,6.7137,6.7144,6.7179,6.7244,6.7249,6.7254,6.7304,6.7316,6.7326,0,0,0,0,0,0,6.7066,6.7071,6.7057,6.711,6.7122,6.7126,6.7155,6.7138,6.7156,6.7151,6.7133,6.7135,6.7182,6.7184,6.7153,6.7238,6.72,6.7207,6.7235,6.7247,6.7256,6.7255,6.7111,0,0,0,0,0,6.7082,6.711,6.7113,6.7159,6.7166,6.716,6.7174,6.7163,6.7174,6.7179,6.718,6.7191,6.7214,6.723,6.7251,6.7308,6.731,6.7335,6.7344,6.7352,6.7359,6.7391,6.7403,6.7274,6.7274,6.7274,0,0,6.7116,6.7122,6.714,6.7168,6.7176,6.7206,6.7164,6.7196,6.7218,6.7183,6.7225,6.7226,6.7237,6.7288,6.731,6.7291,6.7395,6.7359,6.7365,6.7367,6.7398,6.741,6.7421,6.7278,6.7277,6.7277,0,0,6.7192,6.7199,6.724,6.7249,6.7262,6.7258,6.7268,6.7276,6.7276,6.7318,6.7293,6.7318,6.7358,6.7368,6.7378,6.746,6.744,6.7467,6.7516,6.7548,6.7558,6.7567,6.7598,6.761,6.7473,6.7473,6.7474,0,6.7231,6.7276,6.7262,6.7297,6.7311,6.7283,6.7324,6.7333,6.7352,6.7362,6.734,6.7392,6.7397,6.7451,6.7472,6.748,6.7491,6.7467,6.7558,6.7566,6.7575,6.7605,6.7616,6.7477,6.7476,6.7476,6.7476,0,6.7325,6.7356,6.7387,6.7409,6.7426,6.7463,6.7456,6.7474,6.7462,6.746,6.7504,6.7509,6.7532,6.7544,6.7531,6.7597,6.7585,6.7561,6.7522,6.7591,6.7619,6.763,6.7482,6.7481,6.748,6.7479,0,0,6.743,6.7445,6.7457,6.7468,6.7481,6.7505,6.7541,6.7566,6.7583,6.7597,6.7628,6.7664,6.7642,6.7654,6.7642,6.767,6.7738,6.7643,6.7643,6.7662,6.7812,6.7833,6.7846,6.7724,6.7726,6.7728,6.7812,0,6.7508,6.7574,6.7564,6.7627,6.7657,6.7631,6.7663,6.7674,6.7674,6.7698,6.7696,6.7723,6.7691,6.7699,6.7725,6.7724,6.7768,6.7717,6.7754,6.7755,6.7755,6.786,6.7881,6.7961,6.7823,6.7825,6.7826,0,6.7608,6.7629,6.7696,6.7707,6.7719,6.7749,6.7771,6.7795,6.7807,6.7805,6.7819,6.7803,6.784,6.78,6.7851,6.7817,6.7831,6.7833,6.7836,6.784,6.7797,6.787,6.7986,6.7999,6.7843,6.7841,6.784,0,6.7682,6.7726,6.7772,6.7782,6.7795,6.7817,6.7823,6.7834,6.785,6.7869,6.788,6.7902,6.7915,6.7932,6.7923,6.7894,6.7976,6.7935,6.7976,6.7977,6.7996,6.7996,6.8119,6.8001,6.8001,6.8001,6.8001,0,6.7771,6.7814,6.7806,6.7835,6.7882,6.787,6.7917,6.7919,6.793,6.7959,6.7936,6.7963,6.7948,6.7974,6.7966,6.8011,6.8016,6.8016,6.8014,6.802,6.802,6.803,6.8025,6.8004,6.8003,6.8003,6.8002,0,6.7862,6.7858,6.7908,6.7918,6.7921,6.7956,6.7963,6.7991,6.7988,6.8025,6.8033,6.803,6.806,6.8052,6.8083,6.8078,6.8136,6.8125,6.8132,6.8131,6.8174,6.8171,6.8309,6.8328,6.8196,6.8197,6.8198,0,6.7921,6.7954,6.7968,6.7987,6.7996,6.8025,6.8043,6.8031,6.805,6.8068,6.8093,6.8121,6.8143,6.8192,6.8192,6.8216,6.8208,6.8255,6.8211,6.8217,6.8212,6.8211,6.8216,6.8264,6.8265,6.8267,6.8268,0,6.8027,6.8024,6.805,6.8077,6.8099,6.8118,6.8136,6.8152,6.8142,6.8164,6.8195,6.8213,6.8246,6.8275,6.8298,6.8303,6.8285,6.8281,6.8293,6.83,6.8304,6.8305,6.8159,6.8278,6.8277,6.8277,6.8276,6.8276,6.8105,6.8135,6.815,6.8181,6.8193,6.821,6.8238,6.824,6.8266,6.8294,6.8285,6.8322,6.8334,6.8364,6.8372,6.84,6.8382,6.8398,6.8402,6.8407,6.8414,6.8298,6.8404,6.8403,6.8403,6.8403,6.8402,0,6.8213,6.8222,6.825,6.8277,6.8301,6.8282,6.8301,6.8323,6.8356,6.837,6.8393,6.843,6.8458,6.8461,6.8487,6.8509,6.8502,6.8517,6.8517,6.8519,6.8427,6.8416,6.8523,6.8523,6.8523,6.8523,6.8523,6.8523,6.8272,6.8321,6.832,6.8376,6.8384,6.8421,6.8434,6.845,6.8462,6.8505,6.8529,6.8531,6.8541,6.8568,6.8593,6.8593,6.8605,6.8625,6.8622,6.8537,6.8525,6.8513,6.8503,6.8627,6.8627,6.8711,6.8712,6.8713]}]]